Regional Weather Roundup
Issued by NWS

Home | Current Version | Previous Version | Graphics & Text | Print | Product List | Glossary On
Versions: 1 2 3 4 5 6 7 8 9 10 11 12 13 14 15 16 17 18 19 20 21 22 23 24 25 26 27
000
ASUS45 KTFX 270810
RWRMT
MONTANA REGIONAL WEATHER ROUNDUP
NATIONAL WEATHER SERVICE GREAT FALLS MT
200 AM MDT SAT AUG 27 2016

NOTE: "FAIR" INDICATES FEW OR NO CLOUDS BELOW 12000 FEET WITH NO
SIGNIFICANT WEATHER AND/OR OBSTRUCTIONS TO VISIBILITY.

MTZ001>007-043-270900-
WEST OF THE DIVIDE

CITY           SKY/WX    TMP DP  RH WIND       PRES   REMARKS
KALISPELL      CLOUDY    56  46  69 E7        29.85F
MISSOULA       MOCLDY    59  40  49 SE3       29.93S
BUTTE          CLOUDY    45  29  53 E3        30.05S
MULLAN PASS    CLOUDY    57  32  38 VRB5      30.02F
DEER LODGE       N/A     50  34  53 CALM      30.01F
EUREKA           N/A     68  43  40 SE12      29.81F
HAMILTON         N/A     57  36  44 S9        29.95F
LIBBY            N/A     61  41  48 CALM      29.83S
PLAINS           N/A     59  42  53 MISG      29.88F
RONAN            N/A     53  46  77 CALM      29.93F
THOMPSON FALLS   N/A     58  39  49 CALM      29.91F
$$

MTZ008-052>055-270900-
SOUTHWEST MONTANA

CITY           SKY/WX    TMP DP  RH WIND       PRES   REMARKS
BOZEMAN        CLOUDY    49  37  63 SE7       30.00S
DILLON         CLOUDY    51  29  42 S9        30.02S
W YELLOWSTONE  CLOUDY    36  25  64 CALM      30.12S
ENNIS          CLEAR     46  28  49 NE5       30.08S
THREE FORKS      N/A     44  38  79 CALM      29.98S
TWIN BRIDGES     N/A     47  31  54 E5        30.01S
$$

MTZ009-010-012-014-046-048-049-054-270900-
EAST SLOPES AND CENTRAL MONTANA

CITY           SKY/WX    TMP DP  RH WIND       PRES   REMARKS
CUT BANK       CLOUDY    52  39  61 SE6       29.85F
GREAT FALLS    PTCLDY    55  39  54 S10       29.89F
MALMSTROM AFB  PTCLDY    53  40  61 MISG      29.88F
HELENA         CLOUDY    55  36  48 CALM      29.94S
CHOTEAU          N/A     54  39  58 SW6       29.89F
CONRAD           N/A     52  46  79 S5        29.89F
$$

MTZ011-013-016-021-045-047-050-051-270900-
NORTH CENTRAL MONTANA

CITY           SKY/WX    TMP DP  RH WIND       PRES   REMARKS
HAVRE          CLEAR     51  44  77 NE3       29.84F
LEWISTOWN      CLOUDY    50  42  74 SE6       29.95F
N BAR RANCH      N/A     45  39  81 NW5       30.00F
CHINOOK          N/A     52  45  76 E6        29.86F
$$

MTZ017>020-022>027-061-062-270900-
NORTHEAST MONTANA

CITY           SKY/WX    TMP DP  RH WIND       PRES   REMARKS
GLASGOW        CLEAR     49  43  80 SE8       29.91F
JORDAN           N/A     42  39  89 W3        29.94F
SIDNEY         CLEAR     50  45  83 CALM      29.94S
WOLF POINT     CLEAR     45  42  89 CALM      29.93F
POPLAR           N/A     48  43  81 CALM      29.94S
SCOBEY           N/A     42  37  82 CALM      29.92F
$$

MTZ028>42-056>058-270900-
SOUTHCENTRAL AND SOUTHEAST MONTANA

CITY           SKY/WX    TMP DP  RH WIND       PRES   REMARKS
BAKER          CLEAR     47  43  86 CALM      29.98F
BILLINGS       CLEAR     54  40  59 N5        29.96S
LIVINGSTON     CLOUDY    44  36  73 VRB5      30.00F
MILES CITY     CLEAR     56  43  61 NW5       29.94F
EKALAKA          N/A     57  45  64 SW3       29.97S
FORSYTH          N/A     57  46  67 CALM      29.94F
LAUREL           N/A     51  36  56 CALM      29.95F
ROUNDUP          N/A     49  39  68 W6        29.88F
$$

REGIONAL REPORTS...DAKOTAS

CITY           SKY/WX    TMP DP  RH WIND       PRES   REMARKS
WILLISTON      CLOUDY    49  43  80 CALM      29.93F
MINOT          CLOUDY    60  55  83 S10G20    29.91S
DICKINSON      CLOUDY    50  44  80 NE7       29.93F
CROSBY           N/A     46  46 100 S6        29.94S
WATFORD CITY     N/A     50  50 100 SW5       29.94S
BISMARCK       PTCLDY    53  51  93 CALM      29.98F
GRAND FORKS    CLOUDY    57  53  86 SE6       29.99F
FARGO          CLOUDY    64  57  78 SE7       30.00F
BUFFALO SD       N/A     51  48  89 W5        29.92F
RAPID CITY     MOCLDY    52  50  93 SW9       30.01F
$$

REGIONAL REPORTS...WYOMING/IDAHO/WASHINGTON

CITY           SKY/WX    TMP DP  RH WIND       PRES   REMARKS
GILLETTE       CLOUDY    56  49  77 S6        30.02S
SHERIDAN       PTCLDY    54  47  77 CALM      29.98F
BUFFALO WY     PTCLDY    55  39  54 S5        30.04F
CODY           CLEAR     54  43  66 SW10      30.02F
YELLOWSTONE LA   N/A     37  31  78 W3        30.19S
IDAHO FALLS    CLEAR     51  34  52 S3        30.01S
SALMON         PTCLDY   N/A N/A N/A MISG        N/A
BOISE          CLEAR     64  33  31 SE8       29.91S
SPOKANE        CLOUDY    73  40  30 SW12      29.81F
$$

REGIONAL REPORTS...ALBERTA

CITY           SKY/WX    TMP DP  RH WIND       PRES   REMARKS
EDMONTON       CLOUDY    59  54  82 SE5       29.66F
CALGARY        MOCLDY    57  46  67 S7        29.73F
LETHBRIDGE     CLEAR     61  45  55 SW7       29.75F
MEDICINE HAT   PTCLDY    61  45  55 SW6       29.76F
WATERTON GATE    N/A     63  41  45 SW6         N/A
CARDSTON         N/A     61  41  48 SW7         N/A
MILK RIVER       N/A     54  39  58 SE7         N/A
$$

REGIONAL REPORTS...SASKATCHEWAN

CITY           SKY/WX    TMP DP  RH WIND       PRES   REMARKS
SWIFT CURRENT  CLEAR     46  43  87 S12       29.86F
REGINA         CLEAR     45  43  93 W8        29.87F
SASKATOON      CLEAR     50  50 100 S5        29.85F
VAL MARIE        N/A     37  36  93 E2          N/A
ROCKGLEN         N/A     45  41  87 SW6         N/A
ASSINIBOIA       N/A     55  52  88 S7          N/A
$$




USA.gov is the U.S. government's official web portal to all federal, state and local government web resources and services.